Haines, AK

4:12 PM AKDT on June 22, 2017 (GMT -0800)
Haines

Weather History for PAHN - December, 2013

Change the Weather History Date:

Saturday, December 14, 2013

  Actual Average Record
Temperature  
Mean Temperature 31 °F -  
Max Temperature 44 °F 30 °F 45 °F (1980)
Min Temperature 18 °F 23 °F -2 °F (1979)
Degree Days  
Heating Degree Days 34    
Moisture  
Dew Point 32 °F    
Average Humidity 89    
Maximum Humidity 100    
Minimum Humidity 76    
Precipitation  
Precipitation 0.70 in - - ()
Sea Level Pressure  
Sea Level Pressure 29.15 in    
Wind  
Wind Speed 10 mph (ENE)    
Max Wind Speed 29 mph    
Max Gust Speed 51 mph    
Visibility 8 miles    
Events Rain , Snow    
Averages and records for this station are not official NWS values.
T = Trace of Precipitation, MM = Missing Value Source: NWS Daily Summary

Daily Weather History Graph

Daily Weather History Graph

Search for Another Location

Airport or City:

Trip Planner

Search our weather history database for the weather conditions in past years. The results will help you decide how hot, cold, wet, or windy it might be!

Date:

Astronomy

Dec. 14, 2013 Rise Set
Actual Time 8:51 AM AKST 3:02 PM AKST
Civil Twilight 7:56 AM AKST 3:57 PM AKST
Nautical Twilight 7:01 AM AKST 4:52 PM AKST
Astronomical Twilight 6:11 AM AKST 5:42 PM AKST
Moon 1:55 PM AKST (12/14) 5:50 AM AKST (12/14)
Length of Visible Light 8h 00m
Length of Day
6h 10m
Waxing Gibbous, 94% of the Moon is Illuminated
Dec 14
Waxing Gibbous
Dec 17
Full
Dec 25
Last Quarter
Jan 1
New
Jan 7
First Quarter

Hourly Weather History & Observations

Time (AKST) Temp. Windchill Dew Point Humidity Pressure Visibility Wind Dir Wind Speed Gust Speed Precip Events Conditions
12:05 AM 18.0 °F 9.8 °F 15.1 °F 88% 29.31 in 3.0 mi WNW 5.8 mph - 0.01 in Snow Light Snow
12:42 AM 19.0 °F 12.3 °F 17.1 °F 92% 29.31 in 3.0 mi WNW 4.6 mph - 0.03 in Rain Light Freezing Rain
12:54 AM 19.9 °F 13.4 °F 18.0 °F 92% 29.31 in 3.0 mi WNW 4.6 mph - 0.04 in Rain Light Freezing Rain
1:27 AM 19.9 °F 10.1 °F 18.0 °F 92% 29.29 in 4.0 mi West 8.1 mph - 0.03 in Rain Light Freezing Rain
1:41 AM 19.9 °F 10.1 °F 17.1 °F 89% 29.29 in 4.0 mi West 8.1 mph - 0.04 in Rain Light Freezing Rain
1:54 AM 21.0 °F 9.9 °F 19.0 °F 92% 29.30 in 4.0 mi West 10.4 mph - 0.05 in Rain Light Freezing Rain
2:34 AM 21.0 °F 7.6 °F 19.0 °F 92% 29.27 in 7.0 mi WNW 15.0 mph - 0.01 in Rain Light Freezing Rain
2:54 AM 23.0 °F 14.7 °F 21.0 °F 92% 29.28 in 7.0 mi Variable 6.9 mph - 0.01 in Rain Light Freezing Rain
3:54 AM 23.0 °F 13.1 °F 21.9 °F 96% 29.27 in 10.0 mi NW 9.2 mph - 0.02 in Rain Light Freezing Rain
4:29 AM 21.9 °F 12.5 °F 19.9 °F 92% 29.25 in 10.0 mi NW 8.1 mph - 0.00 in   Overcast
4:40 AM 23.0 °F 18.4 °F 21.9 °F 96% 29.24 in 10.0 mi WNW 3.5 mph - 0.00 in Rain Light Freezing Rain
4:54 AM 37.0 °F 34.5 °F 34.0 °F 89% 29.25 in 8.0 mi Variable 3.5 mph - 0.01 in Rain Light Freezing Rain
5:12 AM 36.0 °F 30.3 °F 33.1 °F 89% 29.23 in 9.0 mi Variable 6.9 mph - 0.00 in   Overcast
5:54 AM 41.0 °F 34.7 °F 39.0 °F 93% 29.23 in 10.0 mi East 10.4 mph 21.9 mph 0.02 in Rain Light Rain
6:52 AM 42.8 °F 36.2 °F 39.2 °F 87% 29.19 in 10.0 mi East 12.7 mph 27.6 mph 0.01 in Rain Light Rain
6:54 AM 42.1 °F 35.2 °F 39.0 °F 89% 29.20 in 10.0 mi East 12.7 mph 27.6 mph 0.01 in Rain Light Rain
7:04 AM 42.1 °F 35.2 °F 39.0 °F 89% 29.18 in 10.0 mi East 12.7 mph 23.0 mph 0.00 in Rain Light Rain
7:16 AM 42.1 °F 34.5 °F 39.0 °F 89% 29.18 in 10.0 mi East 15.0 mph 27.6 mph 0.00 in Rain Light Rain
7:36 AM 42.1 °F 34.5 °F 39.9 °F 92% 29.18 in 10.0 mi East 15.0 mph 28.8 mph 0.01 in Rain Light Rain
7:54 AM 42.1 °F 36.1 °F 39.9 °F 92% 29.18 in 10.0 mi East 10.4 mph 21.9 mph 0.01 in Rain Light Rain
8:54 AM 42.1 °F 35.7 °F 39.9 °F 92% 29.16 in 10.0 mi East 11.5 mph 26.5 mph 0.00 in Rain Light Rain
9:36 AM 43.0 °F 35.7 °F 39.9 °F 89% 29.13 in 10.0 mi East 15.0 mph 26.5 mph 0.00 in Rain Light Rain
9:54 AM 43.0 °F 36.0 °F 39.9 °F 89% 29.13 in 10.0 mi ENE 13.8 mph 26.5 mph 0.01 in Rain Light Rain
10:06 AM 43.0 °F 36.0 °F 39.9 °F 89% 29.12 in 10.0 mi East 13.8 mph 23.0 mph 0.00 in Rain Light Rain
10:26 AM 43.0 °F 35.4 °F 39.9 °F 89% 29.11 in 10.0 mi East 16.1 mph 26.5 mph 0.00 in Rain Light Rain
10:43 AM 43.0 °F 36.0 °F 39.9 °F 89% 29.10 in 10.0 mi ENE 13.8 mph 24.2 mph 0.00 in Rain Light Rain
10:54 AM 43.0 °F 35.4 °F 39.9 °F 89% 29.10 in 10.0 mi ENE 16.1 mph 25.3 mph 0.00 in Rain Light Rain
11:34 AM 44.1 °F 37.7 °F 39.0 °F 82% 29.08 in 10.0 mi ENE 12.7 mph 27.6 mph 0.00 in   Overcast
11:54 AM 43.0 °F 37.2 °F 39.0 °F 86% 29.09 in 10.0 mi East 10.4 mph 24.2 mph 0.00 in Rain Light Rain
12:34 PM 32.0 °F 23.6 °F 30.9 °F 96% 29.06 in 10.0 mi WNW 10.4 mph - 0.01 in Rain Light Rain
12:54 PM 33.1 °F 26.9 °F 32.0 °F 96% 29.06 in 5.0 mi West 6.9 mph - 0.02 in   Overcast
1:43 PM 33.1 °F 26.1 °F 32.0 °F 96% 29.02 in 2.5 mi WSW 8.1 mph - 0.10 in Rain Rain
1:54 PM 32.0 °F 24.2 °F 32.0 °F 100% 29.03 in 4.0 mi WNW 9.2 mph - 0.11 in   Overcast
2:54 PM 33.1 °F - 32.0 °F 96% 28.99 in 5.0 mi Calm Calm - 0.09 in Rain Light Rain
3:54 PM 42.1 °F 36.1 °F 37.9 °F 85% 28.95 in 7.0 mi East 10.4 mph 17.3 mph 0.10 in Rain Rain
4:54 PM 41.0 °F 33.5 °F 37.9 °F 89% 28.95 in 7.0 mi East 13.8 mph 21.9 mph 0.05 in Rain Light Rain
5:20 PM 42.1 °F 36.1 °F 39.0 °F 89% 28.93 in 8.0 mi East 10.4 mph 20.7 mph 0.02 in Rain Light Rain
5:54 PM 41.0 °F 33.5 °F 37.9 °F 89% 28.93 in 9.0 mi ENE 13.8 mph 25.3 mph 0.04 in Rain Light Rain
6:22 PM 42.1 °F 34.9 °F 37.9 °F 85% 28.92 in 7.0 mi ENE 13.8 mph 23.0 mph 0.03 in Rain Light Rain
6:54 PM 42.1 °F 33.9 °F 39.0 °F 89% 28.93 in 10.0 mi ENE 17.3 mph 26.5 mph 0.05 in Rain Light Rain
7:09 PM 42.1 °F 34.2 °F 39.0 °F 89% 28.92 in 10.0 mi ENE 16.1 mph 29.9 mph 0.01 in Rain Light Rain
7:54 PM 41.0 °F 33.9 °F 37.9 °F 89% 28.94 in 10.0 mi East 12.7 mph 24.2 mph 0.02 in   Overcast
8:12 PM 41.0 °F 32.8 °F 35.1 °F 79% 28.99 in 10.0 mi ESE 16.1 mph 28.8 mph 0.00 in Rain Light Rain
8:54 PM 37.0 °F 25.9 °F 30.0 °F 76% 29.09 in 10.0 mi ESE 23.0 mph 47.2 mph 0.01 in Rain Light Rain
9:29 PM 36.0 °F 23.9 °F 30.9 °F 82% 29.18 in 6.0 mi ESE 25.3 mph 39.1 mph 0.00 in Rain Light Rain
9:54 PM 36.0 °F 23.5 °F 32.0 °F 86% 29.25 in 5.0 mi ESE 27.6 mph 50.6 mph 0.01 in Rain Light Rain
10:54 PM 35.1 °F 22.0 °F 30.0 °F 82% 29.36 in 3.0 mi ESE 28.8 mph 44.9 mph 0.02 in Snow Light Snow
11:31 PM 34.0 °F 21.5 °F 30.9 °F 89% 29.38 in 2.5 mi ESE 24.2 mph 33.4 mph 0.00 in Snow Light Snow
11:47 PM 35.1 °F 24.1 °F 30.0 °F 82% 29.40 in 3.0 mi East 19.6 mph 38.0 mph 0.00 in Snow Light Snow
11:54 PM 35.1 °F 25.2 °F 30.0 °F 82% 29.42 in 5.0 mi ESE 16.1 mph 36.8 mph 0.00 in Snow Light Snow